GW0416 Weather Reports


Display with metric or nautical units.
time (UTC)temp
F
wind
direction
speed
MPH
gust
MPH
rain 1hr
in
rain 24hr
in
rain mn
in
humidity
%
barometer
mb
20260906163038 57 30 12.0 16.0 0.00 0.00 0.00 91 1018.7
20260906161537 57 30 11.0 15.0 0.00 0.00 0.00 91 1018.5
20260906160046 56 5 10.0 14.0 0.00 0.00 0.00 90 1018.9
20260906154537 56 360 8.0 15.0 0.00 0.00 0.00 89 1019.3
20260906153041 56 300 10.0 16.0 0.00 0.00 0.00 88 1019.4
20260906151542 58 15 7.0 12.0 0.00 0.00 0.00 90 1019.2
20260906150037 57 32 9.0 14.0 0.00 0.00 0.00 90 1019.2
20260906144542 57 26 10.0 16.0 0.00 0.00 0.00 92 1019.1
20260906143050 56 15 12.0 16.0 0.00 0.00 0.00 92 1018.8
20260906141544 56 31 8.0 12.0 0.00 0.00 0.00 93 1019.2
20260906140040 55 26 7.0 11.0 0.00 0.00 0.00 93 1019.2
20260906134535 55 34 10.0 13.0 0.00 0.00 0.00 94 1018.8
20260906133053 54 28 9.0 11.0 0.00 0.00 0.00 94 1018.7
20260906131538 54 32 8.0 11.0 0.00 0.00 0.00 94 1018.8
20260906130036 54 20 9.0 12.0 0.00 0.00 0.00 93 1019.3
20260906124536 54 13 9.0 16.0 0.00 0.00 0.00 93 1019.2
20260906123039 54 26 14.0 18.0 0.00 0.00 0.00 94 1018.8
20260906121541 54 17 13.0 17.0 0.00 0.00 0.00 93 1018.9
20260906120039 54 12 14.0 18.0 0.00 0.00 0.00 93 1019.1
20260906114544 54 26 15.0 19.0 0.00 0.00 0.00 93 1018.9
20260906113039 54 22 12.0 17.0 0.00 0.00 0.00 93 1019.0
20260906111543 54 17 14.0 17.0 0.00 0.00 0.00 93 1019.1
20260906110037 54 20 14.0 21.0 0.00 0.00 0.00 93 1019.1
20260906104535 54 13 14.0 22.0 0.00 0.00 0.00 93 1019.1
20260906103035 54 32 17.0 22.0 0.00 0.00 0.00 93 1019.2
20260906101543 54 15 15.0 20.0 0.00 0.00 0.00 93 1019.5
20260906100039 54 360 17.0 23.0 0.00 0.00 0.00 93 1019.2
20260906094536 53 11 15.0 24.0 0.00 0.00 0.00 93 1019.2
20260906093038 53 17 19.0 24.0 0.00 0.00 0.00 93 1019.2
20260906091535 53 13 20.0 26.0 0.00 0.00 0.00 93 1019.2
20260906090035 54 14 20.0 25.0 0.00 0.00 0.00 92 1019.5
20260906084538 53 13 19.0 25.0 0.00 0.00 0.00 92 1019.6
20260906083038 54 16 16.0 24.0 0.00 0.00 0.00 91 1019.6
20260906081536 54 5 20.0 25.0 0.00 0.00 0.00 90 1019.6
20260906080034 54 18 17.0 25.0 0.00 0.00 0.00 89 1019.8
20260906074537 55 28 19.0 27.0 0.00 0.00 0.00 89 1019.9
20260906073037 55 23 18.0 26.0 0.00 0.00 0.00 88 1020.2
20260906071535 55 26 19.0 25.0 0.00 0.00 0.00 88 1020.2
20260906070035 55 12 18.0 24.0 0.00 0.00 0.00 87 1020.2
20260906064535 56 14 18.0 23.0 0.00 0.00 0.00 86 1020.6
20260906063033 55 10 15.0 21.0 0.00 0.00 0.00 87 1020.6
20260906061538 56 18 18.0 24.0 0.00 0.00 0.00 86 1020.7
20260906060038 56 25 17.0 24.0 0.00 0.00 0.00 85 1020.6
20260906054552 56 24 19.0 24.0 0.00 0.00 0.00 85 1020.6
20260906053034 56 28 19.0 29.0 0.00 0.00 0.00 85 1020.3
20260906051556 56 22 22.0 28.0 0.00 0.00 0.00 85 1020.4
20260906050037 56 19 19.0 29.0 0.00 0.00 0.00 84 1020.6
20260906044533 57 15 19.0 27.0 0.00 0.00 0.00 83 1020.6
20260906043035 57 28 20.0 27.0 0.00 0.00 0.00 82 1019.9
20260906041535 57 10 22.0 31.0 0.00 0.00 0.00 80 1019.5
20260906040103 58 34 22.0 29.0 0.00 0.00 0.00 79 1019.9
20260906034534 58 15 24.0 30.0 0.00 0.00 0.00 75 1020.1
20260906033051 59 15 20.0 29.0 0.00 0.00 0.00 73 1020.3
20260906031536 59 13 24.0 30.0 0.00 0.00 0.00 74 1019.7
20260906030036 58 17 23.0 28.0 0.00 0.00 0.00 74 1019.2
20260906024534 59 24 20.0 28.0 0.00 0.00 0.00 72 1019.0
20260906023035 59 15 21.0 27.0 0.00 0.00 0.00 71 1018.8
20260906021535 60 22 22.0 28.0 0.00 0.00 0.00 70 1018.8
20260906020036 60 19 22.0 29.0 0.00 0.00 0.00 70 1018.8
20260906014535 61 19 22.0 28.0 0.00 0.00 0.00 68 1018.8
20260906013035 62 21 19.0 25.0 0.00 0.00 0.00 66 1018.7
20260906011535 63 15 16.0 25.0 0.00 0.00 0.00 63 1018.7
20260906010036 64 21 19.0 26.0 0.00 0.00 0.00 62 1018.7
20260906004537 66 29 20.0 27.0 0.00 0.00 0.00 59 1018.7
20260906003034 67 17 18.0 26.0 0.00 0.00 0.00 57 1018.8
20260906001534 67 15 20.0 25.0 0.00 0.00 0.00 56 1018.7
20260906000039 68 15 17.0 25.0 0.00 0.00 0.00 54 1018.8
20260905234537 69 5 17.0 24.0 0.00 0.00 0.00 52 1019.0
20260905233033 70 46 14.0 22.0 0.00 0.00 0.00 47 1018.9
20260905231538 71 15 16.0 23.0 0.00 0.00 0.00 48 1018.8
20260905230036 71 23 17.0 23.0 0.00 0.00 0.00 47 1018.7
20260905224607 71 9 18.0 25.0 0.00 0.00 0.00 47 1018.6
20260905223043 72 20 10.0 19.0 0.00 0.00 0.00 43 1018.6
20260905221537 72 32 10.0 18.0 0.00 0.00 0.00 43 1018.8
20260905220033 72 43 15.0 20.0 0.00 0.00 0.00 43 1018.8
20260905214538 73 44 8.0 11.0 0.00 0.00 0.00 41 1018.9
20260905213041 72 12 3.0 8.0 0.00 0.00 0.00 43 1019.1
20260905211542 72 342 7.0 11.0 0.00 0.00 0.00 41 1019.3
20260905210047 71 302 8.0 14.0 0.00 0.00 0.00 40 1019.1
20260905204539 71 300 5.0 13.0 0.00 0.00 0.00 40 1019.2
20260905203038 71 305 9.0 16.0 0.00 0.00 0.00 39 1019.4
20260905201535 70 44 9.0 14.0 0.00 0.00 0.00 40 1019.5
20260905200036 69 329 9.0 18.0 0.00 0.00 0.00 42 1019.7
20260905194541 69 355 11.0 17.0 0.00 0.00 0.00 43 1019.7
20260905193037 69 340 9.0 19.0 0.00 0.00 0.00 43 1019.6
20260905191536 69 313 8.0 19.0 0.00 0.00 0.00 43 1019.9
20260905190035 68 300 5.0 15.0 0.00 0.00 0.00 44 1020.2
20260905184547 68 344 10.0 15.0 0.00 0.00 0.00 44 1020.2
20260905183034 67 315 6.0 13.0 0.00 0.00 0.00 48 1020.4
20260905181535 67 265 7.0 11.0 0.00 0.00 0.00 49 1020.3
20260905180041 66 289 9.0 12.0 0.00 0.00 0.00 51 1020.5
20260905174537 65 281 6.0 14.0 0.00 0.00 0.00 54 1020.3
20260905173041 65 322 7.0 14.0 0.00 0.00 0.00 56 1020.3
20260905171535 65 329 7.0 13.0 0.00 0.00 0.00 57 1020.3
20260905170033 64 311 4.0 11.0 0.00 0.00 0.00 58 1020.4
20260905164534 63 282 8.0 12.0 0.00 0.00 0.00 61 1020.4